Location: Charlottesville
(38.0290°N, 78.4770°W)
Time: 08:15:35
(UTC-05:00)

OTV 5 (USA 277) - Pass Details

Date: 13 October 2017
Orbit: 404 x 417 km, 43.0° (Epoch: 07 September)

Event Time Altitude Azimuth Distance (km) Brightness Sun altitude
Rises 20:23:28 0° 277° (W) 2,353 ? -21.4°
Reaches altitude 10° 20:25:42 10° 287° (WNW) 1,490 ? -21.8°
Enters shadow 20:28:29 33° 340° (NNW) 716 ? -22.4°
